Time,TemperatureF,DewpointF,PressureIn,WindDirection,WindDirectionDegrees,WindSpeedMPH,WindSpeedGustMPH,Humidity,HourlyPrecipIn,Conditions,Clouds,dailyrainin,SoftwareType,DateUTC
2013-05-10 00:01:00,54.1,53.2,30.08,SSW,208,0.0,0.0,97,0.00,,,0.00,meteohub,2013-05-10 04:01:00,
2013-05-10 00:02:00,54.1,53.2,30.08,SSW,208,0.0,0.0,97,0.00,,,0.00,meteohub,2013-05-10 04:02:00,
2013-05-10 00:07:00,54.1,53.2,30.08,SSW,208,0.0,0.0,97,0.00,,,0.00,meteohub,2013-05-10 04:07:00,
2013-05-10 00:12:00,54.1,53.2,30.09,SSW,210,0.0,0.0,97,0.00,,,0.00,meteohub,2013-05-10 04:12:00,
2013-05-10 00:17:00,54.1,53.2,30.09,SSW,210,0.0,0.0,97,0.00,,,0.00,meteohub,2013-05-10 04:17:00,
2013-05-10 00:22:00,54.3,53.8,30.09,SSW,210,0.0,0.0,98,0.00,,,0.00,meteohub,2013-05-10 04:22:00,
2013-05-10 00:27:00,54.7,54.1,30.09,SSW,210,0.0,0.0,98,0.00,,,0.00,meteohub,2013-05-10 04:27:00,
2013-05-10 00:32:00,54.5,53.6,30.08,SSW,210,0.0,0.0,97,0.00,,,0.00,meteohub,2013-05-10 04:32:00,
2013-05-10 00:37:00,54.3,53.4,30.08,SSW,210,0.0,0.0,97,0.00,,,0.00,meteohub,2013-05-10 04:37:00,
2013-05-10 00:42:00,54.3,53.4,30.08,SSW,210,0.0,0.0,97,0.00,,,0.00,meteohub,2013-05-10 04:42:00,
2013-05-10 00:47:00,54.1,53.2,30.09,SSW,203,0.0,0.0,97,0.00,,,0.00,meteohub,2013-05-10 04:47:00,
2013-05-10 00:52:00,54.1,53.2,30.09,SSW,203,0.0,0.0,97,0.00,,,0.00,meteohub,2013-05-10 04:52:00,
2013-05-10 00:57:00,54.1,53.2,30.09,SSW,203,0.0,0.0,97,0.00,,,0.00,meteohub,2013-05-10 04:57:00,
2013-05-10 01:03:00,54.1,53.6,30.09,SSW,203,0.0,0.0,98,0.00,,,0.00,meteohub,2013-05-10 05:03:00,
2013-05-10 01:08:00,54.1,53.2,30.09,SSW,203,0.0,0.0,97,0.00,,,0.00,meteohub,2013-05-10 05:08:00,
2013-05-10 01:13:00,54.0,53.1,30.09,SSW,203,0.0,0.0,97,0.00,,,0.00,meteohub,2013-05-10 05:13:00,
2013-05-10 01:18:00,54.0,53.1,30.09,SSW,203,0.0,0.0,97,0.00,,,0.00,meteohub,2013-05-10 05:18:00,
2013-05-10 01:23:00,53.8,52.9,30.09,SSW,203,0.0,0.0,97,0.00,,,0.00,meteohub,2013-05-10 05:23:00,
2013-05-10 01:28:00,53.8,52.9,30.09,SSW,203,0.0,0.0,97,0.00,,,0.00,meteohub,2013-05-10 05:28:00,
2013-05-10 01:33:00,53.6,52.7,30.09,SSW,203,0.0,0.0,97,0.00,,,0.00,meteohub,2013-05-10 05:33:00,
2013-05-10 01:38:00,53.4,52.5,30.08,SSW,203,0.0,0.0,97,0.00,,,0.00,meteohub,2013-05-10 05:38:00,
2013-05-10 01:43:00,53.1,52.2,30.08,SSW,203,0.0,0.0,97,0.00,,,0.00,meteohub,2013-05-10 05:43:00,
2013-05-10 01:48:00,53.1,52.2,30.08,SSW,203,0.0,0.0,97,0.00,,,0.00,meteohub,2013-05-10 05:48:00,
2013-05-10 01:53:00,52.9,52.3,30.07,SSW,203,0.0,0.0,98,0.00,,,0.00,meteohub,2013-05-10 05:53:00,
2013-05-10 01:58:00,52.9,52.3,30.07,SSW,203,0.0,0.0,98,0.00,,,0.00,meteohub,2013-05-10 05:58:00,
2013-05-10 02:03:00,52.7,52.2,30.08,SSW,203,0.0,0.0,98,0.00,,,0.00,meteohub,2013-05-10 06:03:00,
2013-05-10 02:08:00,52.5,52.0,30.07,SSW,203,0.0,0.0,98,0.00,,,0.00,meteohub,2013-05-10 06:08:00,
2013-05-10 02:13:00,52.3,51.8,30.07,SSW,203,0.0,0.0,98,0.00,,,0.00,meteohub,2013-05-10 06:13:00,
2013-05-10 02:18:00,52.2,51.6,30.07,SSW,203,0.0,0.0,98,0.00,,,0.00,meteohub,2013-05-10 06:18:00,
2013-05-10 02:23:00,52.2,51.6,30.07,SSW,203,0.0,0.0,98,0.00,,,0.00,meteohub,2013-05-10 06:23:00,
2013-05-10 02:28:00,52.0,51.4,30.06,SSW,203,0.0,0.0,98,0.00,,,0.00,meteohub,2013-05-10 06:28:00,
2013-05-10 02:33:00,52.0,51.4,30.06,SSW,203,0.0,0.0,98,0.00,,,0.00,meteohub,2013-05-10 06:33:00,
2013-05-10 02:38:00,52.0,51.4,30.06,SSW,203,0.0,0.0,98,0.00,,,0.00,meteohub,2013-05-10 06:38:00,
2013-05-10 02:43:00,51.8,51.3,30.06,SSW,203,0.0,0.0,98,0.00,,,0.00,meteohub,2013-05-10 06:43:00,
2013-05-10 02:48:00,51.6,51.1,30.06,SSW,203,0.0,0.0,98,0.00,,,0.00,meteohub,2013-05-10 06:48:00,
2013-05-10 02:53:00,51.8,51.3,30.06,SSW,203,0.0,0.0,98,0.00,,,0.00,meteohub,2013-05-10 06:53:00,
2013-05-10 02:58:00,51.6,51.1,30.06,SSW,203,0.0,0.0,98,0.00,,,0.00,meteohub,2013-05-10 06:58:00,
2013-05-10 03:03:00,51.6,51.1,30.06,SSW,203,0.0,0.0,98,0.00,,,0.00,meteohub,2013-05-10 07:03:00,
2013-05-10 03:08:00,51.6,51.1,30.06,SSW,203,0.0,0.0,98,0.00,,,0.00,meteohub,2013-05-10 07:08:00,
2013-05-10 03:13:00,51.6,51.1,30.06,SSW,203,0.0,0.0,98,0.00,,,0.00,meteohub,2013-05-10 07:13:00,
2013-05-10 03:18:00,51.6,51.3,30.06,SSW,203,0.0,0.0,99,0.00,,,0.00,meteohub,2013-05-10 07:18:00,
2013-05-10 03:23:00,51.6,51.3,30.06,SSW,203,0.0,0.0,99,0.00,,,0.00,meteohub,2013-05-10 07:23:00,
2013-05-10 03:28:00,51.4,50.9,30.06,SSW,203,0.0,0.0,98,0.00,,,0.00,meteohub,2013-05-10 07:28:00,
2013-05-10 03:33:00,51.3,50.7,30.06,SSW,203,0.0,0.0,98,0.00,,,0.00,meteohub,2013-05-10 07:33:00,
2013-05-10 03:38:00,51.4,50.9,30.06,SSW,203,0.0,0.0,98,0.00,,,0.00,meteohub,2013-05-10 07:38:00,
2013-05-10 03:43:00,51.4,51.1,30.05,SSW,203,0.0,0.0,99,0.00,,,0.00,meteohub,2013-05-10 07:43:00,
2013-05-10 03:48:00,51.3,50.9,30.05,SSW,203,0.0,0.0,99,0.00,,,0.00,meteohub,2013-05-10 07:48:00,
2013-05-10 03:53:00,51.1,50.5,30.05,SSW,203,0.0,0.0,98,0.00,,,0.00,meteohub,2013-05-10 07:53:00,
2013-05-10 03:59:00,51.1,50.7,30.05,SSW,203,0.0,0.0,99,0.00,,,0.00,meteohub,2013-05-10 07:59:00,
2013-05-10 04:04:00,51.3,50.9,30.05,SSW,203,0.0,0.0,99,0.00,,,0.00,meteohub,2013-05-10 08:04:00,
2013-05-10 04:09:00,51.1,50.7,30.05,WNW,298,0.0,0.0,99,0.00,,,0.00,meteohub,2013-05-10 08:09:00,
2013-05-10 04:14:00,51.3,50.9,30.04,WNW,298,0.0,1.0,99,0.00,,,0.00,meteohub,2013-05-10 08:14:00,
2013-05-10 04:19:00,51.3,50.9,30.04,NNE,30,0.0,1.0,99,0.00,,,0.00,meteohub,2013-05-10 08:19:00,
2013-05-10 04:24:00,51.1,50.7,30.04,NNE,30,0.0,1.0,99,0.00,,,0.00,meteohub,2013-05-10 08:24:00,
2013-05-10 04:29:00,51.1,50.7,30.04,NNE,30,0.0,0.0,99,0.00,,,0.00,meteohub,2013-05-10 08:29:00,
2013-05-10 04:34:00,51.3,50.9,30.04,NNE,30,0.0,0.0,99,0.00,,,0.00,meteohub,2013-05-10 08:34:00,
2013-05-10 04:39:00,50.5,50.2,30.04,NNE,30,0.0,0.0,99,0.00,,,0.00,meteohub,2013-05-10 08:39:00,
2013-05-10 04:44:00,50.5,50.2,30.04,NNE,30,0.0,0.0,99,0.00,,,0.00,meteohub,2013-05-10 08:44:00,
2013-05-10 07:10:00,50.2,49.8,30.04,North,-999,-999.0,-999.0,99,-99.99,,,0.00,meteohub,2013-05-10 11:10:00,
2013-05-10 07:16:00,50.2,49.8,30.04,North,-999,-999.0,-999.0,99,0.00,,,0.00,meteohub,2013-05-10 11:16:00,
2013-05-10 07:21:00,50.0,49.6,30.04,West,274,0.0,0.0,99,0.00,,,0.00,meteohub,2013-05-10 11:21:00,
2013-05-10 07:26:00,50.0,49.6,30.04,West,274,0.0,0.0,99,0.00,,,0.00,meteohub,2013-05-10 11:26:00,
2013-05-10 07:31:00,50.0,49.6,30.05,West,274,0.0,0.0,99,0.00,,,0.00,meteohub,2013-05-10 11:31:00,
2013-05-10 07:36:00,50.2,49.8,30.05,West,274,0.0,0.0,99,0.00,,,0.00,meteohub,2013-05-10 11:36:00,
2013-05-10 07:41:00,50.4,50.0,30.05,West,274,0.0,0.0,99,0.00,,,0.00,meteohub,2013-05-10 11:41:00,
2013-05-10 07:46:00,50.7,50.4,30.05,West,274,0.0,0.0,99,0.00,,,0.00,meteohub,2013-05-10 11:46:00,
2013-05-10 07:51:00,50.7,50.4,30.05,West,274,0.0,0.0,99,0.00,,,0.00,meteohub,2013-05-10 11:51:00,
2013-05-10 07:56:00,51.1,50.7,30.05,West,274,0.0,0.0,99,0.00,,,0.00,meteohub,2013-05-10 11:56:00,
2013-05-10 08:01:00,51.3,50.9,30.05,West,274,0.0,0.0,99,0.00,,,0.00,meteohub,2013-05-10 12:01:00,
2013-05-10 08:06:00,51.4,51.1,30.06,West,274,0.0,0.0,99,0.00,,,0.00,meteohub,2013-05-10 12:06:00,
2013-05-10 08:11:00,51.6,51.3,30.06,West,274,0.0,0.0,99,0.00,,,0.00,meteohub,2013-05-10 12:11:00,
2013-05-10 08:16:00,52.2,51.8,30.06,West,274,0.0,0.0,99,0.00,,,0.00,meteohub,2013-05-10 12:16:00,
2013-05-10 08:21:00,52.3,52.0,30.06,West,274,0.0,0.0,99,0.00,,,0.00,meteohub,2013-05-10 12:21:00,
2013-05-10 08:26:00,52.9,52.5,30.06,West,274,0.0,0.0,99,0.00,,,0.00,meteohub,2013-05-10 12:26:00,
2013-05-10 08:31:00,53.2,52.9,30.06,SSE,150,0.0,0.0,99,0.00,,,0.00,meteohub,2013-05-10 12:31:00,
2013-05-10 08:36:00,54.0,53.6,30.06,SE,134,0.0,0.0,99,0.00,,,0.00,meteohub,2013-05-10 12:36:00,
2013-05-10 08:41:00,54.9,54.3,30.06,SE,135,0.0,0.0,98,0.00,,,0.00,meteohub,2013-05-10 12:41:00,
2013-05-10 08:46:00,56.1,55.2,30.06,SE,135,0.0,1.0,97,0.00,,,0.00,meteohub,2013-05-10 12:46:00,
2013-05-10 08:51:00,57.6,55.8,30.06,SE,135,0.0,1.0,94,0.00,,,0.00,meteohub,2013-05-10 12:51:00,
2013-05-10 08:56:00,59.2,57.2,30.06,SE,136,0.0,1.0,93,0.00,,,0.00,meteohub,2013-05-10 12:56:00,
2013-05-10 09:01:00,60.4,56.8,30.05,SE,134,0.0,0.0,88,0.00,,,0.00,meteohub,2013-05-10 13:01:00,
2013-05-10 09:06:00,61.7,56.8,30.05,SE,134,0.0,0.0,84,0.00,,,0.00,meteohub,2013-05-10 13:06:00,
2013-05-10 09:11:00,62.6,57.4,30.05,SE,129,1.0,1.0,83,0.00,,,0.00,meteohub,2013-05-10 13:11:00,
2013-05-10 09:16:00,63.3,57.0,30.05,ESE,108,0.0,1.0,80,0.00,,,0.00,meteohub,2013-05-10 13:16:00,
2013-05-10 09:21:00,64.2,57.6,30.04,ESE,121,0.0,1.0,79,0.00,,,0.00,meteohub,2013-05-10 13:21:00,
2013-05-10 09:26:00,64.8,57.4,30.05,SW,221,0.0,1.0,77,0.00,,,0.00,meteohub,2013-05-10 13:26:00,
2013-05-10 09:31:00,65.3,57.2,30.05,West,264,0.0,1.0,75,0.00,,,0.00,meteohub,2013-05-10 13:31:00,
2013-05-10 09:36:00,66.4,57.9,30.04,SW,229,0.0,1.0,74,0.00,,,0.00,meteohub,2013-05-10 13:36:00,
2013-05-10 09:41:00,67.8,58.5,30.04,ESE,102,0.0,1.0,72,0.00,,,0.00,meteohub,2013-05-10 13:41:00,
2013-05-10 09:46:00,69.6,58.6,30.04,South,185,0.0,1.0,68,0.00,,,0.00,meteohub,2013-05-10 13:46:00,
2013-05-10 09:51:00,70.2,58.3,30.04,SSE,150,2.0,2.0,66,0.00,,,0.00,meteohub,2013-05-10 13:51:00,
2013-05-10 09:56:00,70.5,58.1,30.04,East,100,0.0,3.0,65,0.00,,,0.00,meteohub,2013-05-10 13:56:00,
2013-05-10 10:01:00,71.6,59.2,30.04,ENE,65,0.0,3.0,65,0.00,,,0.00,meteohub,2013-05-10 14:01:00,
2013-05-10 10:06:00,71.2,57.9,30.04,NW,311,1.0,4.0,63,0.00,,,0.00,meteohub,2013-05-10 14:06:00,
2013-05-10 10:11:00,71.1,57.7,30.04,East,92,1.0,8.0,63,0.00,,,0.00,meteohub,2013-05-10 14:11:00,
2013-05-10 10:16:00,71.4,57.7,30.04,SSE,151,3.0,8.0,62,0.00,,,0.00,meteohub,2013-05-10 14:16:00,
2013-05-10 10:22:00,71.6,57.4,30.04,West,273,2.0,8.0,61,0.00,,,0.00,meteohub,2013-05-10 14:22:00,
2013-05-10 10:26:00,71.8,58.1,30.03,South,184,5.0,8.0,62,0.00,,,0.00,meteohub,2013-05-10 14:26:00,
2013-05-10 10:31:00,71.2,56.7,30.03,West,273,3.0,8.0,60,0.00,,,0.00,meteohub,2013-05-10 14:31:00,
2013-05-10 10:36:00,71.1,56.5,30.03,WSW,240,5.0,12.0,60,0.00,,,0.00,meteohub,2013-05-10 14:36:00,
2013-05-10 10:41:00,71.2,56.1,30.03,North,350,2.0,12.0,59,0.00,,,0.00,meteohub,2013-05-10 14:41:00,
2013-05-10 10:46:00,71.1,56.5,30.03,SE,133,3.0,9.0,60,0.00,,,0.00,meteohub,2013-05-10 14:46:00,
2013-05-10 10:52:00,71.4,57.2,30.04,West,275,4.0,10.0,61,0.00,,,0.00,meteohub,2013-05-10 14:52:00,
2013-05-10 10:57:00,72.0,56.8,30.04,SSE,166,2.0,10.0,59,0.00,,,0.00,meteohub,2013-05-10 14:57:00,
2013-05-10 11:02:00,72.1,55.6,30.04,West,280,2.0,10.0,56,0.00,,,0.00,meteohub,2013-05-10 15:02:00,
2013-05-10 11:07:00,71.8,55.8,30.04,ENE,75,3.0,11.0,57,0.00,,,0.00,meteohub,2013-05-10 15:07:00,
2013-05-10 11:12:00,70.5,55.6,30.05,NW,316,3.0,15.0,59,0.00,,,0.00,meteohub,2013-05-10 15:12:00,
2013-05-10 11:17:00,70.0,55.4,30.05,SSW,194,5.0,15.0,60,0.00,,,0.00,meteohub,2013-05-10 15:17:00,
2013-05-10 11:22:00,70.2,55.2,30.04,SE,130,2.0,15.0,59,0.00,,,0.00,meteohub,2013-05-10 15:22:00,
2013-05-10 11:27:00,70.5,56.5,30.05,West,278,3.0,10.0,61,0.00,,,0.00,meteohub,2013-05-10 15:27:00,
2013-05-10 11:32:00,71.4,56.8,30.05,SSE,168,8.0,10.0,60,0.00,,,0.00,meteohub,2013-05-10 15:32:00,
2013-05-10 11:36:00,72.0,56.3,30.05,East,87,2.0,15.0,58,0.00,,,0.00,meteohub,2013-05-10 15:36:00,
2013-05-10 11:42:00,72.1,56.5,30.05,NE,49,0.0,15.0,58,0.00,,,0.00,meteohub,2013-05-10 15:42:00,
2013-05-10 11:47:00,73.6,56.8,30.05,West,277,7.0,15.0,56,0.00,,,0.00,meteohub,2013-05-10 15:47:00,
2013-05-10 11:52:00,73.8,57.6,30.04,SSE,147,1.0,13.0,57,0.00,,,0.00,meteohub,2013-05-10 15:52:00,
2013-05-10 11:57:00,73.9,57.2,30.04,SSW,204,3.0,13.0,56,0.00,,,0.00,meteohub,2013-05-10 15:57:00,
2013-05-10 12:02:00,73.8,57.0,30.04,WNW,300,0.0,11.0,56,0.00,,,0.00,meteohub,2013-05-10 16:02:00,
2013-05-10 12:07:00,73.9,57.2,30.04,West,266,6.0,10.0,56,0.00,,,0.00,meteohub,2013-05-10 16:07:00,
2013-05-10 12:12:00,72.9,58.1,30.04,ESE,105,3.0,14.0,60,0.00,,,0.00,meteohub,2013-05-10 16:12:00,
2013-05-10 12:17:00,73.2,57.0,30.04,NW,323,3.0,14.0,57,0.00,,,0.00,meteohub,2013-05-10 16:17:00,
2013-05-10 12:22:00,73.6,57.9,30.04,WNW,287,2.0,17.0,58,0.00,,,0.00,meteohub,2013-05-10 16:22:00,
2013-05-10 12:27:00,73.9,57.7,30.04,SSE,148,3.0,17.0,57,0.00,,,0.00,meteohub,2013-05-10 16:27:00,
2013-05-10 12:32:00,73.9,57.7,30.04,SSW,204,5.0,13.0,57,0.00,,,0.00,meteohub,2013-05-10 16:32:00,
2013-05-10 12:36:00,74.5,58.3,30.04,NW,304,2.0,12.0,57,0.00,,,0.00,meteohub,2013-05-10 16:36:00,
2013-05-10 12:42:00,73.2,57.0,30.03,South,188,6.0,12.0,57,0.00,,,0.00,meteohub,2013-05-10 16:42:00,
2013-05-10 12:47:00,73.6,57.9,30.03,SSE,150,8.0,19.0,58,0.00,,,0.00,meteohub,2013-05-10 16:47:00,
2013-05-10 12:52:00,74.7,58.5,30.02,SSE,156,5.0,19.0,57,0.00,,,0.00,meteohub,2013-05-10 16:52:00,
2013-05-10 12:57:00,74.1,57.9,30.01,SSE,160,4.0,19.0,57,0.00,,,0.00,meteohub,2013-05-10 16:57:00,
2013-05-10 13:02:00,75.6,59.2,30.02,East,92,1.0,19.0,57,0.00,,,0.00,meteohub,2013-05-10 17:02:00,
2013-05-10 13:07:00,75.4,58.6,30.02,SW,225,1.0,19.0,56,0.00,,,0.00,meteohub,2013-05-10 17:07:00,
2013-05-10 13:12:00,73.9,58.3,30.02,WNW,292,3.0,12.0,58,0.00,,,0.00,meteohub,2013-05-10 17:12:00,
2013-05-10 13:17:00,73.6,57.9,30.02,SE,138,3.0,11.0,58,0.00,,,0.00,meteohub,2013-05-10 17:17:00,
2013-05-10 13:22:00,73.2,58.5,30.02,ESE,122,13.0,14.0,60,0.00,,,0.00,meteohub,2013-05-10 17:22:00,
2013-05-10 13:27:00,72.7,58.8,30.02,SSE,162,2.0,14.0,62,0.00,,,0.00,meteohub,2013-05-10 17:27:00,
2013-05-10 13:32:00,73.6,58.8,30.02,SE,135,2.0,14.0,60,0.00,,,0.00,meteohub,2013-05-10 17:32:00,
2013-05-10 13:37:00,74.3,59.0,30.02,SW,230,2.0,13.0,59,0.00,,,0.00,meteohub,2013-05-10 17:37:00,
2013-05-10 13:42:00,75.0,59.2,30.02,East,98,3.0,13.0,58,0.00,,,0.00,meteohub,2013-05-10 17:42:00,
2013-05-10 13:47:00,74.7,57.9,30.02,SE,129,1.0,13.0,56,0.00,,,0.00,meteohub,2013-05-10 17:47:00,
2013-05-10 13:52:00,74.5,58.3,30.02,SE,143,5.0,12.0,57,0.00,,,0.00,meteohub,2013-05-10 17:52:00,
2013-05-10 13:57:00,72.9,58.6,30.02,ESE,108,13.0,17.0,61,0.00,,,0.00,meteohub,2013-05-10 17:57:00,
2013-05-10 14:02:00,71.1,58.6,30.02,SE,135,5.0,17.0,65,0.00,,,0.00,meteohub,2013-05-10 18:02:00,
2013-05-10 14:07:00,69.6,60.3,30.02,ESE,108,3.0,17.0,72,0.00,,,0.00,meteohub,2013-05-10 18:07:00,
2013-05-10 14:12:00,67.6,60.6,30.02,ESE,116,2.0,13.0,78,0.01,,,0.01,meteohub,2013-05-10 18:12:00,
2013-05-10 14:17:00,66.6,61.2,30.02,ESE,122,0.0,12.0,83,0.01,,,0.01,meteohub,2013-05-10 18:17:00,
2013-05-10 14:22:00,66.6,60.3,30.01,South,186,1.0,12.0,80,0.01,,,0.01,meteohub,2013-05-10 18:22:00,
2013-05-10 14:27:00,66.9,59.5,30.01,SE,129,4.0,7.0,77,0.01,,,0.01,meteohub,2013-05-10 18:27:00,
2013-05-10 14:32:00,68.0,61.5,30.01,North,1,0.0,10.0,80,0.01,,,0.01,meteohub,2013-05-10 18:32:00,
2013-05-10 14:37:00,68.9,61.0,30.01,ESE,111,2.0,10.0,76,0.01,,,0.01,meteohub,2013-05-10 18:37:00,
2013-05-10 14:42:00,69.4,59.2,30.01,SE,142,3.0,9.0,70,0.01,,,0.01,meteohub,2013-05-10 18:42:00,
2013-05-10 14:47:00,69.3,59.9,30.01,SSW,197,1.0,15.0,72,0.01,,,0.01,meteohub,2013-05-10 18:47:00,
2013-05-10 14:52:00,69.1,59.7,30.00,SSE,162,4.0,15.0,72,0.01,,,0.01,meteohub,2013-05-10 18:52:00,
2013-05-10 14:57:00,69.8,59.9,30.00,SE,129,9.0,15.0,71,0.01,,,0.01,meteohub,2013-05-10 18:57:00,
2013-05-10 15:02:00,70.3,59.4,30.00,NW,305,4.0,16.0,68,0.01,,,0.01,meteohub,2013-05-10 19:02:00,
2013-05-10 15:07:00,70.3,59.7,29.99,ESE,109,8.0,19.0,69,0.01,,,0.01,meteohub,2013-05-10 19:07:00,
2013-05-10 15:12:00,72.0,60.4,29.99,SE,140,3.0,19.0,67,0.00,,,0.01,meteohub,2013-05-10 19:12:00,
2013-05-10 15:17:00,72.1,58.8,29.99,West,275,4.0,19.0,63,0.00,,,0.01,meteohub,2013-05-10 19:17:00,
2013-05-10 15:22:00,72.1,58.8,29.99,East,90,3.0,11.0,63,0.00,,,0.01,meteohub,2013-05-10 19:22:00,
2013-05-10 15:27:00,72.3,59.5,29.99,South,174,5.0,12.0,64,0.00,,,0.01,meteohub,2013-05-10 19:27:00,
2013-05-10 15:32:00,72.9,59.5,29.99,ENE,67,1.0,12.0,63,0.00,,,0.01,meteohub,2013-05-10 19:32:00,
2013-05-10 15:37:00,73.4,59.5,29.99,SE,139,3.0,11.0,62,0.00,,,0.01,meteohub,2013-05-10 19:37:00,
2013-05-10 15:42:00,72.7,58.8,29.99,NW,318,1.0,11.0,62,0.00,,,0.01,meteohub,2013-05-10 19:42:00,
2013-05-10 15:47:00,73.0,59.2,29.98,ESE,117,13.0,13.0,62,0.00,,,0.01,meteohub,2013-05-10 19:47:00,
2013-05-10 15:52:00,72.1,58.8,29.98,SSW,200,12.0,14.0,63,0.00,,,0.01,meteohub,2013-05-10 19:52:00,
2013-05-10 15:57:00,71.8,58.5,29.98,ENE,57,2.0,14.0,63,0.00,,,0.01,meteohub,2013-05-10 19:57:00,
2013-05-10 16:02:00,71.6,58.8,29.98,East,79,2.0,14.0,64,0.00,,,0.01,meteohub,2013-05-10 20:02:00,
2013-05-10 16:07:00,71.4,58.6,29.98,West,268,2.0,13.0,64,0.00,,,0.01,meteohub,2013-05-10 20:07:00,
2013-05-10 16:12:00,71.1,59.2,29.98,SE,128,1.0,11.0,66,0.00,,,0.01,meteohub,2013-05-10 20:12:00,
2013-05-10 16:17:00,70.5,59.4,29.98,SE,139,2.0,11.0,68,0.00,,,0.01,meteohub,2013-05-10 20:17:00,
2013-05-10 16:22:00,69.6,60.3,29.97,ENE,70,0.0,11.0,72,0.00,,,0.01,meteohub,2013-05-10 20:22:00,
2013-05-10 16:27:00,69.3,60.3,29.97,SSW,194,1.0,10.0,73,0.00,,,0.01,meteohub,2013-05-10 20:27:00,
2013-05-10 16:32:00,69.3,59.5,29.97,SW,236,4.0,10.0,71,0.00,,,0.01,meteohub,2013-05-10 20:32:00,
2013-05-10 16:37:00,69.3,59.9,29.97,South,189,3.0,7.0,72,0.00,,,0.01,meteohub,2013-05-10 20:37:00,
2013-05-10 16:42:00,69.6,60.3,29.97,West,277,2.0,7.0,72,0.00,,,0.01,meteohub,2013-05-10 20:42:00,
2013-05-10 16:47:00,70.0,60.1,29.97,NE,50,0.0,7.0,71,0.00,,,0.01,meteohub,2013-05-10 20:47:00,
2013-05-10 16:52:00,70.3,60.1,29.97,NE,39,0.0,6.0,70,0.00,,,0.01,meteohub,2013-05-10 20:52:00,
2013-05-10 16:57:00,70.3,60.4,29.97,ENE,78,0.0,8.0,71,0.00,,,0.01,meteohub,2013-05-10 20:57:00,
2013-05-10 17:02:00,70.0,59.7,29.98,NW,326,0.0,8.0,70,0.00,,,0.01,meteohub,2013-05-10 21:02:00,
2013-05-10 17:07:00,70.0,60.1,29.97,SSW,210,4.0,8.0,71,0.00,,,0.01,meteohub,2013-05-10 21:07:00,
2013-05-10 17:12:00,70.2,60.3,29.97,WNW,299,2.0,7.0,71,0.00,,,0.01,meteohub,2013-05-10 21:12:00,
2013-05-10 17:17:00,70.2,58.6,29.97,SW,223,3.0,6.0,67,0.00,,,0.01,meteohub,2013-05-10 21:17:00,
2013-05-10 17:22:00,69.6,58.1,29.97,ENE,77,3.0,8.0,67,0.00,,,0.01,meteohub,2013-05-10 21:22:00,
2013-05-10 17:27:00,69.6,58.1,29.97,ENE,60,1.0,9.0,67,0.00,,,0.01,meteohub,2013-05-10 21:27:00,
2013-05-10 17:32:00,69.3,57.9,29.97,SW,223,1.0,9.0,67,0.00,,,0.01,meteohub,2013-05-10 21:32:00,
2013-05-10 17:37:00,69.1,57.7,29.98,SE,129,2.0,10.0,67,0.00,,,0.01,meteohub,2013-05-10 21:37:00,
2013-05-10 17:42:00,68.9,57.9,29.97,WNW,284,1.0,10.0,68,0.00,,,0.01,meteohub,2013-05-10 21:42:00,
2013-05-10 17:47:00,68.7,58.1,29.97,WNW,293,0.0,8.0,69,0.00,,,0.01,meteohub,2013-05-10 21:47:00,
2013-05-10 17:52:00,68.5,57.6,29.97,NW,319,0.0,7.0,68,0.00,,,0.01,meteohub,2013-05-10 21:52:00,
2013-05-10 17:58:00,68.5,57.6,29.96,WSW,240,2.0,5.0,68,0.00,,,0.01,meteohub,2013-05-10 21:58:00,
2013-05-10 18:03:00,68.4,57.4,29.97,SW,228,0.0,5.0,68,0.00,,,0.01,meteohub,2013-05-10 22:03:00,
2013-05-10 18:08:00,68.2,57.2,29.96,SW,235,0.0,5.0,68,0.00,,,0.01,meteohub,2013-05-10 22:08:00,
2013-05-10 18:13:00,68.2,57.2,29.97,SSE,147,5.0,5.0,68,0.00,,,0.01,meteohub,2013-05-10 22:13:00,
2013-05-10 18:18:00,68.2,57.6,29.97,East,96,0.0,6.0,69,0.00,,,0.01,meteohub,2013-05-10 22:18:00,
2013-05-10 18:24:00,68.0,57.0,29.96,West,263,3.0,10.0,68,0.00,,,0.01,meteohub,2013-05-10 22:24:00,
2013-05-10 18:29:00,68.0,57.9,29.96,North,8,1.0,10.0,70,0.00,,,0.01,meteohub,2013-05-10 22:29:00,
2013-05-10 18:34:00,67.8,57.7,29.96,West,281,5.0,10.0,70,0.00,,,0.01,meteohub,2013-05-10 22:34:00,
2013-05-10 18:39:00,67.6,57.6,29.96,SSW,204,0.0,8.0,70,0.00,,,0.01,meteohub,2013-05-10 22:39:00,
2013-05-10 18:44:00,67.6,57.6,29.96,ESE,105,0.0,8.0,70,0.00,,,0.01,meteohub,2013-05-10 22:44:00,
2013-05-10 18:49:00,67.5,57.4,29.96,SSE,147,0.0,9.0,70,0.00,,,0.01,meteohub,2013-05-10 22:49:00,
2013-05-10 18:54:00,67.3,57.6,29.96,SSE,158,1.0,9.0,71,0.00,,,0.01,meteohub,2013-05-10 22:54:00,
2013-05-10 18:59:00,67.1,57.4,29.95,SE,128,3.0,9.0,71,0.00,,,0.01,meteohub,2013-05-10 22:59:00,
2013-05-10 19:04:00,66.7,57.7,29.95,ESE,109,1.0,7.0,73,0.00,,,0.01,meteohub,2013-05-10 23:04:00,
2013-05-10 19:09:00,66.7,57.7,29.95,ESE,114,0.0,7.0,73,0.00,,,0.01,meteohub,2013-05-10 23:09:00,
2013-05-10 19:14:00,66.6,57.6,29.95,East,82,0.0,6.0,73,0.00,,,0.01,meteohub,2013-05-10 23:14:00,
2013-05-10 19:19:00,66.4,57.4,29.95,East,82,0.0,4.0,73,0.00,,,0.01,meteohub,2013-05-10 23:19:00,
2013-05-10 19:24:00,66.2,57.7,29.95,SSW,208,1.0,3.0,74,0.00,,,0.01,meteohub,2013-05-10 23:24:00,
2013-05-10 19:29:00,66.0,57.6,29.95,SSE,158,1.0,3.0,74,0.00,,,0.01,meteohub,2013-05-10 23:29:00,
2013-05-10 19:34:00,65.8,57.4,29.94,South,179,0.0,3.0,74,0.00,,,0.01,meteohub,2013-05-10 23:34:00,
2013-05-10 19:39:00,65.7,57.2,29.94,SE,129,2.0,3.0,74,0.00,,,0.01,meteohub,2013-05-10 23:39:00,
2013-05-10 19:44:00,65.7,57.6,29.94,ENE,67,0.0,4.0,75,0.00,,,0.01,meteohub,2013-05-10 23:44:00,
2013-05-10 19:49:00,65.7,57.2,29.94,SSW,203,0.0,4.0,74,0.00,,,0.01,meteohub,2013-05-10 23:49:00,
2013-05-10 19:54:00,65.7,57.2,29.95,SE,138,0.0,4.0,74,0.00,,,0.01,meteohub,2013-05-10 23:54:00,
2013-05-10 19:59:00,65.7,56.8,29.94,SE,142,3.0,3.0,73,0.00,,,0.01,meteohub,2013-05-10 23:59:00,
2013-05-10 20:04:00,65.7,57.2,29.94,SW,219,1.0,4.0,74,0.00,,,0.01,meteohub,2013-05-11 00:04:00,
2013-05-10 20:09:00,65.5,57.0,29.95,SSW,207,0.0,4.0,74,0.00,,,0.00,meteohub,2013-05-11 00:09:00,
2013-05-10 20:14:00,65.1,56.7,29.95,SSW,200,0.0,4.0,74,0.00,,,0.00,meteohub,2013-05-11 00:14:00,
2013-05-10 20:19:00,65.1,57.0,29.96,SSW,200,0.0,2.0,75,0.00,,,0.00,meteohub,2013-05-11 00:19:00,
2013-05-10 20:24:00,64.8,56.7,29.97,SSW,207,0.0,1.0,75,0.00,,,0.00,meteohub,2013-05-11 00:24:00,
2013-05-10 20:29:00,64.6,56.8,29.97,East,91,0.0,1.0,76,0.00,,,0.00,meteohub,2013-05-11 00:29:00,
2013-05-10 20:34:00,64.6,56.8,29.97,West,273,0.0,2.0,76,0.00,,,0.00,meteohub,2013-05-11 00:34:00,
2013-05-10 20:39:00,64.2,56.8,29.96,East,98,0.0,2.0,77,0.00,,,0.00,meteohub,2013-05-11 00:39:00,
2013-05-10 20:44:00,64.0,57.0,29.97,East,97,0.0,2.0,78,0.00,,,0.00,meteohub,2013-05-11 00:44:00,
2013-05-10 20:49:00,63.9,56.8,29.97,East,98,0.0,1.0,78,0.00,,,0.00,meteohub,2013-05-11 00:49:00,
2013-05-10 20:54:00,63.7,57.0,29.97,East,97,0.0,1.0,79,0.00,,,0.00,meteohub,2013-05-11 00:54:00,
2013-05-10 20:59:00,63.3,57.0,29.96,East,97,0.0,0.0,80,0.00,,,0.00,meteohub,2013-05-11 00:59:00,
2013-05-10 21:04:00,63.0,57.0,29.96,East,97,0.0,0.0,81,0.00,,,0.00,meteohub,2013-05-11 01:04:00,
2013-05-10 21:09:00,62.8,57.2,29.96,East,97,0.0,0.0,82,0.00,,,0.00,meteohub,2013-05-11 01:09:00,
2013-05-10 21:14:00,62.4,57.2,29.95,East,97,0.0,0.0,83,0.00,,,0.00,meteohub,2013-05-11 01:14:00,
2013-05-10 21:19:00,62.2,57.0,29.96,East,98,0.0,0.0,83,0.00,,,0.00,meteohub,2013-05-11 01:19:00,
2013-05-10 21:24:00,62.2,57.0,29.96,East,98,0.0,0.0,83,0.00,,,0.00,meteohub,2013-05-11 01:24:00,
2013-05-10 21:29:00,62.2,57.0,29.97,East,98,0.0,0.0,83,0.00,,,0.00,meteohub,2013-05-11 01:29:00,
2013-05-10 21:34:00,62.2,57.0,29.97,East,98,0.0,0.0,83,0.00,,,0.00,meteohub,2013-05-11 01:34:00,
2013-05-10 21:39:00,62.2,57.4,29.97,East,98,0.0,0.0,84,0.00,,,0.00,meteohub,2013-05-11 01:39:00,
2013-05-10 21:44:00,62.1,57.2,29.98,East,98,0.0,0.0,84,0.00,,,0.00,meteohub,2013-05-11 01:44:00,
2013-05-10 21:50:00,61.9,57.0,29.97,East,98,0.0,0.0,84,0.00,,,0.00,meteohub,2013-05-11 01:50:00,
2013-05-10 21:55:00,61.9,57.4,29.97,East,98,0.0,0.0,85,0.00,,,0.00,meteohub,2013-05-11 01:55:00,
2013-05-10 22:00:00,61.7,57.2,29.97,East,98,0.0,0.0,85,0.00,,,0.00,meteohub,2013-05-11 02:00:00,
2013-05-10 22:05:00,61.5,57.0,29.97,East,98,0.0,0.0,85,0.00,,,0.00,meteohub,2013-05-11 02:05:00,
2013-05-10 22:10:00,61.5,57.4,29.97,East,98,0.0,0.0,86,0.00,,,0.00,meteohub,2013-05-11 02:10:00,
2013-05-10 22:15:00,61.5,57.0,29.97,East,98,0.0,0.0,85,0.00,,,0.00,meteohub,2013-05-11 02:15:00,
2013-05-10 22:20:00,61.3,57.2,29.97,East,98,0.0,0.0,86,0.00,,,0.00,meteohub,2013-05-11 02:20:00,
2013-05-10 22:25:00,61.3,57.2,29.97,East,98,0.0,0.0,86,0.00,,,0.00,meteohub,2013-05-11 02:25:00,
2013-05-10 22:30:00,61.3,57.2,29.97,East,98,0.0,0.0,86,0.00,,,0.00,meteohub,2013-05-11 02:30:00,
2013-05-10 22:35:00,61.3,56.8,29.97,East,99,0.0,0.0,85,0.00,,,0.00,meteohub,2013-05-11 02:35:00,
2013-05-10 22:40:00,61.3,56.8,29.97,East,99,0.0,0.0,85,0.00,,,0.00,meteohub,2013-05-11 02:40:00,
2013-05-10 22:45:00,61.5,57.4,29.96,NNW,330,0.0,0.0,86,0.00,,,0.00,meteohub,2013-05-11 02:45:00,
2013-05-10 22:50:00,61.5,57.4,29.97,West,277,0.0,0.0,86,0.00,,,0.00,meteohub,2013-05-11 02:50:00,
2013-05-10 22:55:00,61.5,57.4,29.97,West,277,0.0,1.0,86,0.00,,,0.00,meteohub,2013-05-11 02:55:00,
2013-05-10 23:00:00,61.5,57.6,29.97,West,276,0.0,1.0,87,0.00,,,0.00,meteohub,2013-05-11 03:00:00,
2013-05-10 23:05:00,61.3,57.4,29.97,West,277,0.0,0.0,87,0.00,,,0.00,meteohub,2013-05-11 03:05:00,
2013-05-10 23:10:00,61.2,57.2,29.97,West,277,0.0,0.0,87,0.00,,,0.00,meteohub,2013-05-11 03:10:00,
2013-05-10 23:15:00,61.2,57.2,29.97,West,277,0.0,0.0,87,0.00,,,0.00,meteohub,2013-05-11 03:15:00,
2013-05-10 23:20:00,61.0,57.4,29.96,West,277,0.0,0.0,88,0.00,,,0.00,meteohub,2013-05-11 03:20:00,
2013-05-10 23:25:00,61.0,57.4,29.96,West,277,0.0,0.0,88,0.00,,,0.00,meteohub,2013-05-11 03:25:00,
2013-05-10 23:30:00,61.0,57.4,29.96,West,277,0.0,0.0,88,0.00,,,0.00,meteohub,2013-05-11 03:30:00,
2013-05-10 23:35:00,60.6,57.0,29.96,West,277,0.0,0.0,88,0.00,,,0.00,meteohub,2013-05-11 03:35:00,
2013-05-10 23:40:00,60.6,57.0,29.96,West,277,0.0,0.0,88,0.00,,,0.00,meteohub,2013-05-11 03:40:00,
2013-05-10 23:45:00,60.4,57.2,29.96,West,277,0.0,0.0,89,0.00,,,0.00,meteohub,2013-05-11 03:45:00,
2013-05-10 23:50:00,60.4,57.2,29.96,West,277,0.0,0.0,89,0.00,,,0.00,meteohub,2013-05-11 03:50:00,
2013-05-10 23:55:00,60.4,57.2,29.96,West,277,0.0,0.0,89,0.00,,,0.00,meteohub,2013-05-11 03:55:00,